This demonstration page uses our WeatherBlox Daily Observations layout. Learn more.

36.19886, -115.1175

Hourly Observations for July 12, 2018

Temp ( °F °C ) Dew Point ( °F °C ) Humidity (%) Winds ( mph kmh ) Pressure ( in mb ) Visibility ( mi km ) Precip ( " mm )
12:02 am 00:02 Clear with Nearby Thunderstorms 86 30 64 17.8 48 48 SE 10 17 29.77 1008 10 16.09344 0 0
12:39 am 00:39 Clear 85 29.4 65 18.3 51 51 ESE 7 11 29.77 1008 10 16.09344 0 0
12:53 am 00:53 Clear 85 29.4 65 18.3 51 51 E 7 11 29.85 1011 10 16.09344 0 0
1:53 am 01:53 Clear 84 28.9 64 17.8 51 51 ESE 10 17 29.85 1011 10 16.09344 0 0
2:53 am 02:53 Clear 83 28.3 63 17.2 51 51 ESE 13 20 29.88 1012 10 16.09344 0 0
3:53 am 03:53 Clear 83 28.3 64 17.8 53 53 SE 9 15 29.88 1012 10 16.09344 0 0
4:53 am 04:53 Clear 82 27.8 64 17.8 55 55 ESE 7 11 29.88 1012 10 16.09344 0 0
5:53 am 05:53 Sunny 82 27.8 64 17.8 55 55 E 8 13 29.91 1013 10 16.09344 0 0
6:53 am 06:53 Sunny 83 28.3 64 17.8 53 53 ESE 6 9 29.94 1014 10 16.09344 0 0
7:53 am 07:53 Sunny 85 29.4 64 17.8 50 50 SE 6 9 29.94 1014 10 16.09344 0 0
8:53 am 08:53 Sunny 86 30 64 17.8 48 48 ESE 10 17 29.97 1015 10 16.09344 0 0
9:53 am 09:53 Sunny 88 31.1 64 17.8 45 45 ESE 8 13 29.97 1015 10 16.09344 0 0
10:53 am 10:53 Sunny 90 32.2 63 17.2 41 41 undefined N/A 29.94 1014 10 16.09344 0 0
11:53 am 11:53 Sunny 94 34.4 63 17.2 36 36 undefined N/A 29.91 1013 10 16.09344 0 0
12:53 pm 12:53 Partly Cloudy 94 34.4 62 16.7 35 35 SSE 20 31 29.91 1013 10 16.09344 0 0
1:53 pm 13:53 Mostly Cloudy 91 32.8 60 15.6 35 35 WSW 14 22 29.94 1014 10 16.09344 0 0
2:02 pm 14:02 Mostly Cloudy 90 32.2 61 16.1 38 38 WNW 15 24 29.83 1010 10 16.09344 0 0
2:12 pm 14:12 Partly Cloudy 89 31.7 61 16.1 39 39 W 12 19 29.83 1010 10 16.09344 0 0
2:53 pm 14:53 Sunny 90 32.2 61 16.1 38 38 SSW 7 11 29.91 1013 10 16.09344 0 0
3:53 pm 15:53 Sunny 90 32.2 58 14.4 34 34 S 10 17 29.91 1013 10 16.09344 0 0
4:53 pm 16:53 Sunny 92 33.3 60 15.6 34 34 S 8 13 29.91 1013 10 16.09344 0 0
5:53 pm 17:53 Sunny 92 33.3 63 17.2 38 38 ESE 8 13 29.88 1012 10 16.09344 0 0
6:53 pm 18:53 Sunny 91 32.8 64 17.8 41 41 ESE 12 19 29.88 1012 10 16.09344 0 0
7:53 pm 19:53 Sunny 89 31.7 62 16.7 41 41 ESE 13 20 29.94 1014 10 16.09344 0 0
8:53 pm 20:53 Clear 87 30.6 63 17.2 45 45 ESE 12 19 29.94 1014 10 16.09344 0 0
9:53 pm 21:53 Clear 87 30.6 64 17.8 46 46 ENE 6 9 29.97 1015 10 16.09344 0 0
10:53 pm 22:53 Clear 85 29.4 63 17.2 48 48 NNE 5 7 29.97 1015 10 16.09344 0 0
11:53 pm 23:53 Mostly Clear 84 28.9 64 17.8 51 51 E 3 6 29.97 1015 10 16.09344 0 0

Powered by AerisWeather